TimeEST,TemperatureF,Dew PointF,Humidity,Sea Level PressureIn,VisibilityMPH,Wind Direction,Wind SpeedMPH,Gust SpeedMPH,PrecipitationIn,Events,Conditions,WindDirDegrees,DateUTC
12:53 AM,64.9,52.0,63,30.30,10.0,East,4.6,-,N/A,,Overcast,80,2012-12-31 05:53:00
1:53 AM,64.0,52.0,65,30.30,10.0,East,5.8,-,N/A,,Mostly Cloudy,90,2012-12-31 06:53:00
2:53 AM,64.9,52.0,63,30.29,10.0,East,6.9,-,N/A,,Overcast,90,2012-12-31 07:53:00
3:53 AM,64.0,51.1,63,30.27,10.0,East,10.4,-,N/A,,Mostly Cloudy,100,2012-12-31 08:53:00
4:53 AM,64.9,51.1,61,30.27,10.0,ESE,10.4,-,N/A,,Scattered Clouds,110,2012-12-31 09:53:00
5:53 AM,64.9,52.0,63,30.28,10.0,East,5.8,-,N/A,,Mostly Cloudy,90,2012-12-31 10:53:00
6:53 AM,66.0,53.1,63,30.29,10.0,East,10.4,-,N/A,,Mostly Cloudy,100,2012-12-31 11:53:00
7:53 AM,66.0,54.0,65,30.30,10.0,East,8.1,-,N/A,,Mostly Cloudy,90,2012-12-31 12:53:00
8:53 AM,68.0,54.0,61,30.31,10.0,East,12.7,-,N/A,,Mostly Cloudy,100,2012-12-31 13:53:00
9:53 AM,72.0,54.0,53,30.33,10.0,ESE,16.1,-,N/A,,Partly Cloudy,120,2012-12-31 14:53:00
10:53 AM,72.0,54.0,53,30.33,10.0,SE,16.1,-,N/A,,Scattered Clouds,140,2012-12-31 15:53:00
11:53 AM,73.0,53.1,49,30.31,10.0,SE,17.3,-,N/A,,Clear,130,2012-12-31 16:53:00
12:53 PM,73.9,54.0,50,30.29,10.0,ESE,10.4,-,N/A,,Partly Cloudy,120,2012-12-31 17:53:00
1:53 PM,72.0,54.0,53,30.25,10.0,ESE,17.3,28.8,N/A,,Partly Cloudy,120,2012-12-31 18:53:00
2:53 PM,72.0,55.0,55,30.24,10.0,ESE,13.8,-,N/A,,Mostly Cloudy,120,2012-12-31 19:53:00
3:53 PM,71.1,55.0,57,30.22,10.0,ESE,16.1,-,N/A,,Scattered Clouds,120,2012-12-31 20:53:00
4:53 PM,69.1,55.0,61,30.22,10.0,SE,11.5,-,N/A,,Mostly Cloudy,140,2012-12-31 21:53:00
5:53 PM,66.9,55.0,66,30.23,10.0,ESE,5.8,-,N/A,,Scattered Clouds,120,2012-12-31 22:53:00
6:53 PM,64.9,55.0,70,30.23,10.0,SSE,3.5,-,N/A,,Partly Cloudy,160,2012-12-31 23:53:00
7:53 PM,59.0,53.6,82,30.23,10.0,Calm,Calm,-,N/A,,Scattered Clouds,0,2013-01-01 00:53:00
8:53 PM,57.9,55.0,90,30.23,10.0,Calm,Calm,-,N/A,,Overcast,0,2013-01-01 01:53:00
9:53 PM,57.2,55.4,94,30.24,10.0,Calm,Calm,-,N/A,,Mostly Cloudy,0,2013-01-01 02:53:00
10:53 PM,57.2,53.6,88,30.24,7.0,NNW,3.5,-,N/A,,Mostly Cloudy,330,2013-01-01 03:53:00
11:53 PM,57.0,54.0,89,30.22,5.0,Calm,Calm,-,N/A,,Overcast,0,2013-01-01 04:53:00